Overview Statistics Trail Chart Weather Telemetry Raw packets
 

This is the latest recevied weather packets stored in our database for station/object K6LOT-13. If no packets are shown the sender has not sent any weather packets the latest 10 day(s).

<< 23 24 25 26 27 28 29 >>
Time Temp. Humidity Pressure Rain* Wind** Luminosity Snow
1788470568 28.33° C 55% 1014.1 hPa 0 mm - - -
1788470540 27.78° C 55% 1014.2 hPa 0 mm - - -
1788469952 27.78° C 55% 1014.1 hPa 0 mm - - -
1788469682 28.33° C 54% 1014.2 hPa 0 mm - - -
1788468719 28.33° C 54% 1014.4 hPa 0 mm - - -
1788468409 28.33° C 54% 1014.3 hPa 0 mm - - -
1788468108 28.89° C 52% 1014.3 hPa 0 mm - - -
1788468103 28.33° C 53% 1014.3 hPa 0 mm - - -
1788467486 28.89° C 53% 1014.3 hPa 0 mm - - -
1788467180 28.89° C 53% 1014.3 hPa 0 mm - - -
1788466870 28.89° C 52% 1014.3 hPa 0 mm - - -
1788466564 29.44° C 52% 1014.3 hPa 0 mm - - -
1788466253 29.44° C 52% 1014.3 hPa 0 mm - - -
1788465331 30° C 50% 1014.5 hPa 0 mm - - -
1788465330 30° C 50% 1014.5 hPa 0 mm - - -
1788464724 29.44° C 49% 1014.8 hPa 0 mm - - -
1788464718 29.44° C 50% 1014.6 hPa 0 mm - - -
1788463855 29.44° C 50% 1015 hPa 0 mm - - -
1788463843 29.44° C 50% 1015 hPa 0 mm - - -
1788463822 29.44° C 49% 1014.9 hPa 0 mm - - -
1788462567 29.44° C 51% 1015.2 hPa 0 mm - - -
1788461977 28.89° C 51% 1015.4 hPa 0 mm - - -
1788461330 28.89° C 52% 1015.5 hPa 0 mm - - -
1788461054 28.33° C 53% 1015.5 hPa 0 mm - - -
1788460727 28.33° C 54% 1015.6 hPa 0 mm - - -

* Rain latest hour (hover to see other rain measurements)
** Current wind speed in m/s (hover to see current wind gust speed)